Terminal Aerodrome Forecast
Issued by NWS Indianapolis, IN

Home | Current Version | Previous Version | Text Only | Print | Product List | Glossary On
Versions: 1 2 3 4 5 6 7 8 9 10 11 12 13 14 15 16 17 18 19 20 21 22 23 24 25 26 27 28 29
000
FTUS43 KIND 051100
TAFIND
TAF
KIND 051125Z 0512/0618 35008KT P6SM OVC100
     FM051600 32010KT P6SM SCT030 SCT100 SCT250
     FM051800 32010KT P6SM BKN035
     FM060100 32005KT P6SM SCT035
     FM061000 25003KT P6SM SCT100 SCT250=

USA.gov is the U.S. government's official web portal to all federal, state and local government web resources and services.